| time (UTC) | temp F | wind direction | speed knots | gust knots | rain 1hr in | rain 24hr in | rain mn in | humidity % | barometer mb |
| 20260503032703 | 64 | 0 | 0.0 | 0.0 | 0.00 | 0.00 | 0.00 | 63 | 1018.1 |
| 20260503031804 | 64 | 0 | 0.0 | 0.0 | 0.00 | 0.00 | 0.00 | 64 | 1018.0 |
| 20260503030903 | 65 | 0 | 0.0 | 0.0 | 0.00 | 0.00 | 0.00 | 63 | 1018.0 |
| 20260503030004 | 65 | 0 | 0.0 | 0.0 | 0.00 | 0.00 | 0.00 | 61 | 1017.9 |
| 20260503025403 | 66 | 0 | 0.0 | 0.0 | 0.00 | 0.00 | 0.00 | 61 | 1017.8 |
| 20260503024504 | 66 | 0 | 0.0 | 0.0 | 0.00 | 0.00 | 0.00 | 60 | 1017.7 |
| 20260503023603 | 66 | 0 | 0.0 | 0.0 | 0.00 | 0.00 | 0.00 | 59 | 1017.7 |
| 20260503022703 | 67 | 0 | 0.0 | 0.0 | 0.00 | 0.00 | 0.00 | 57 | 1017.5 |
| 20260503021825 | 67 | 0 | 0.0 | 0.0 | 0.00 | 0.00 | 0.00 | 56 | 1017.5 |
| 20260503020903 | 68 | 0 | 0.0 | 0.0 | 0.00 | 0.00 | 0.00 | 55 | 1017.4 |
| 20260503020003 | 69 | 0 | 0.0 | 0.0 | 0.00 | 0.00 | 0.00 | 54 | 1017.3 |
| 20260503015404 | 69 | 268 | 0.9 | 2.6 | 0.00 | 0.00 | 0.00 | 54 | 1017.2 |
| 20260503014504 | 70 | 268 | 0.9 | 1.7 | 0.00 | 0.00 | 0.00 | 52 | 1017.2 |
| 20260503013604 | 70 | 268 | 0.9 | 1.7 | 0.00 | 0.00 | 0.00 | 50 | 1017.1 |
| 20260503012703 | 72 | 268 | 0.9 | 1.7 | 0.00 | 0.00 | 0.00 | 48 | 1017.1 |
| 20260503011824 | 73 | 268 | 0.0 | 1.7 | 0.00 | 0.00 | 0.00 | 47 | 1017.1 |
| 20260503010904 | 74 | 268 | 0.0 | 1.7 | 0.00 | 0.00 | 0.00 | 44 | 1017.1 |
| 20260503010003 | 75 | 268 | 0.0 | 0.9 | 0.00 | 0.00 | 0.00 | 41 | 1017.0 |
| 20260503005403 | 75 | 268 | 0.0 | 0.9 | 0.00 | 0.00 | 0.00 | 42 | 1017.0 |
| 20260503004524 | 76 | 268 | 0.0 | 0.9 | 0.00 | 0.00 | 0.00 | 39 | 1017.1 |
| 20260503003604 | 76 | 268 | 0.9 | 1.7 | 0.00 | 0.00 | 0.00 | 38 | 1017.0 |
| 20260503002703 | 76 | 268 | 0.9 | 1.7 | 0.00 | 0.00 | 0.00 | 38 | 1017.0 |
| 20260503001803 | 77 | 278 | 1.7 | 2.6 | 0.00 | 0.00 | 0.00 | 38 | 1017.0 |
| 20260503000904 | 77 | 306 | 1.7 | 2.6 | 0.00 | 0.00 | 0.00 | 38 | 1016.9 |
| 20260503000004 | 77 | 314 | 1.7 | 3.5 | 0.00 | 0.00 | 0.00 | 37 | 1017.0 |
| 20260502235425 | 78 | 313 | 0.9 | 2.6 | 0.00 | 0.00 | 0.00 | 36 | 1017.0 |
| 20260502234504 | 78 | 323 | 1.7 | 3.5 | 0.00 | 0.00 | 0.00 | 36 | 1017.0 |
| 20260502233603 | 78 | 348 | 1.7 | 3.5 | 0.00 | 0.00 | 0.00 | 36 | 1017.0 |
| 20260502232704 | 78 | 4 | 1.7 | 4.3 | 0.00 | 0.00 | 0.00 | 37 | 1017.0 |
| 20260502231803 | 78 | 13 | 2.6 | 4.3 | 0.00 | 0.00 | 0.00 | 36 | 1017.1 |
| 20260502230903 | 78 | 353 | 1.7 | 4.3 | 0.00 | 0.00 | 0.00 | 37 | 1017.1 |
| 20260502230004 | 78 | 357 | 2.6 | 4.3 | 0.00 | 0.00 | 0.00 | 37 | 1017.2 |
| 20260502225404 | 78 | 24 | 1.7 | 4.3 | 0.00 | 0.00 | 0.00 | 37 | 1017.1 |
| 20260502224504 | 77 | 294 | 0.9 | 1.7 | 0.00 | 0.00 | 0.00 | 36 | 1017.2 |
| 20260502223604 | 77 | 293 | 1.7 | 3.5 | 0.00 | 0.00 | 0.00 | 35 | 1017.2 |
| 20260502222725 | 78 | 323 | 1.7 | 3.5 | 0.00 | 0.00 | 0.00 | 35 | 1017.3 |
| 20260502221803 | 78 | 357 | 2.6 | 5.2 | 0.00 | 0.00 | 0.00 | 37 | 1017.3 |
| 20260502220903 | 79 | 324 | 2.6 | 6.1 | 0.00 | 0.00 | 0.00 | 37 | 1017.4 |
| 20260502220003 | 80 | 317 | 1.7 | 3.5 | 0.00 | 0.00 | 0.00 | 36 | 1017.4 |
| 20260502215404 | 80 | 22 | 1.7 | 4.3 | 0.00 | 0.00 | 0.00 | 40 | 1017.4 |
| 20260502214524 | 80 | 57 | 1.7 | 6.1 | 0.00 | 0.00 | 0.00 | 39 | 1017.5 |
| 20260502213603 | 80 | 54 | 1.7 | 6.1 | 0.00 | 0.00 | 0.00 | 39 | 1017.6 |
| 20260502212703 | 79 | 23 | 1.7 | 7.0 | 0.00 | 0.00 | 0.00 | 41 | 1017.7 |
| 20260502211804 | 79 | 13 | 3.5 | 7.0 | 0.00 | 0.00 | 0.00 | 40 | 1017.9 |
| 20260502210924 | 79 | 347 | 3.5 | 8.7 | 0.00 | 0.00 | 0.00 | 39 | 1017.9 |
| 20260502210003 | 80 | 358 | 2.6 | 7.0 | 0.00 | 0.00 | 0.00 | 40 | 1018.1 |
| 20260502205425 | 79 | 8 | 2.6 | 10.4 | 0.00 | 0.00 | 0.00 | 41 | 1018.2 |
| 20260502204504 | 79 | 4 | 3.5 | 7.8 | 0.00 | 0.00 | 0.00 | 41 | 1018.3 |
| 20260502203603 | 79 | 28 | 2.6 | 7.0 | 0.00 | 0.00 | 0.00 | 40 | 1018.4 |
| 20260502202725 | 79 | 47 | 2.6 | 7.0 | 0.00 | 0.00 | 0.00 | 39 | 1018.5 |
| 20260502201804 | 79 | 10 | 2.6 | 6.1 | 0.00 | 0.00 | 0.00 | 44 | 1018.5 |
| 20260502200903 | 78 | 6 | 3.5 | 7.0 | 0.00 | 0.00 | 0.00 | 41 | 1018.5 |
| 20260502200003 | 78 | 59 | 3.5 | 8.7 | 0.00 | 0.00 | 0.00 | 41 | 1018.7 |
| 20260502195403 | 78 | 37 | 3.5 | 8.7 | 0.00 | 0.00 | 0.00 | 40 | 1018.7 |
| 20260502194503 | 78 | 25 | 3.5 | 9.6 | 0.00 | 0.00 | 0.00 | 40 | 1018.8 |
| 20260502193603 | 78 | 56 | 2.6 | 7.8 | 0.00 | 0.00 | 0.00 | 41 | 1018.9 |
| 20260502192704 | 77 | 15 | 3.5 | 9.6 | 0.00 | 0.00 | 0.00 | 42 | 1019.0 |
| 20260502191803 | 77 | 334 | 4.3 | 9.6 | 0.00 | 0.00 | 0.00 | 42 | 1019.0 |
| 20260502190924 | 77 | 17 | 4.3 | 10.4 | 0.00 | 0.00 | 0.00 | 43 | 1019.1 |
| 20260502190024 | 78 | 40 | 2.6 | 9.6 | 0.00 | 0.00 | 0.00 | 45 | 1019.2 |
| 20260502185403 | 77 | 45 | 2.6 | 9.6 | 0.00 | 0.00 | 0.00 | 44 | 1019.3 |
| 20260502184524 | 76 | 349 | 4.3 | 9.6 | 0.00 | 0.00 | 0.00 | 44 | 1019.4 |
| 20260502183604 | 76 | 332 | 4.3 | 8.7 | 0.00 | 0.00 | 0.00 | 44 | 1019.6 |
| 20260502182703 | 76 | 14 | 2.6 | 9.6 | 0.00 | 0.00 | 0.00 | 44 | 1019.7 |
| 20260502181804 | 75 | 330 | 2.6 | 7.0 | 0.00 | 0.00 | 0.00 | 45 | 1019.8 |
| 20260502180903 | 76 | 1 | 1.7 | 6.1 | 0.00 | 0.00 | 0.00 | 44 | 1020.0 |
| 20260502163603 | 69 | 310 | 2.6 | 6.1 | 0.00 | 0.00 | 0.00 | 58 | 1020.9 |
| 20260502162703 | 69 | 319 | 3.5 | 7.0 | 0.00 | 0.00 | 0.00 | 59 | 1020.8 |
| 20260502161825 | 68 | 326 | 3.5 | 7.0 | 0.00 | 0.00 | 0.00 | 62 | 1020.9 |
| 20260502160903 | 68 | 340 | 2.6 | 7.0 | 0.00 | 0.00 | 0.00 | 64 | 1020.8 |
| 20260502151824 | 63 | 331 | 4.3 | 7.8 | 0.00 | 0.00 | 0.00 | 74 | 1020.7 |
| 20260502150925 | 63 | 325 | 4.3 | 8.7 | 0.00 | 0.00 | 0.00 | 76 | 1020.7 |
| 20260502123624 | 50 | 307 | 1.7 | 2.6 | 0.00 | 0.03 | 0.00 | 89 | 1019.6 |
| 20260502122704 | 50 | 306 | 0.9 | 2.6 | 0.00 | 0.03 | 0.00 | 89 | 1019.5 |
| 20260502121824 | 50 | 300 | 0.0 | 2.6 | 0.00 | 0.03 | 0.00 | 89 | 1019.3 |
| 20260502120924 | 49 | 306 | 0.9 | 2.6 | 0.00 | 0.03 | 0.00 | 89 | 1019.1 |
| 20260502115403 | 49 | 315 | 0.9 | 3.5 | 0.00 | 0.03 | 0.00 | 89 | 1018.9 |
| 20260502114503 | 49 | 319 | 0.0 | 1.7 | 0.00 | 0.03 | 0.00 | 89 | 1018.6 |
| 20260502113603 | 48 | 319 | 0.0 | 1.7 | 0.00 | 0.03 | 0.00 | 89 | 1018.5 |
| 20260502112725 | 48 | 0 | 0.0 | 0.0 | 0.00 | 0.03 | 0.00 | 89 | 1018.3 |
| 20260502111803 | 49 | 0 | 0.0 | 0.0 | 0.00 | 0.03 | 0.00 | 88 | 1018.2 |
| 20260502110903 | 49 | 0 | 0.0 | 0.0 | 0.00 | 0.03 | 0.00 | 88 | 1018.1 |
| 20260502110004 | 49 | 0 | 0.0 | 0.0 | 0.00 | 0.03 | 0.00 | 88 | 1017.9 |
| 20260502105403 | 49 | 0 | 0.0 | 0.0 | 0.00 | 0.03 | 0.00 | 88 | 1017.9 |
| 20260502104504 | 49 | 0 | 0.0 | 0.0 | 0.00 | 0.03 | 0.00 | 88 | 1017.8 |
| 20260502103624 | 49 | 0 | 0.0 | 0.0 | 0.00 | 0.03 | 0.00 | 88 | 1017.7 |
| 20260502102703 | 49 | 0 | 0.0 | 0.0 | 0.00 | 0.03 | 0.00 | 88 | 1017.6 |
| 20260502101804 | 49 | 0 | 0.0 | 0.0 | 0.00 | 0.03 | 0.00 | 88 | 1017.5 |
| 20260502100903 | 50 | 0 | 0.0 | 0.0 | 0.00 | 0.03 | 0.00 | 88 | 1017.5 |
| 20260502090924 | 50 | 0 | 0.0 | 0.0 | 0.00 | 0.03 | 0.00 | 88 | 1017.3 |
| 20260502070903 | 51 | 0 | 0.0 | 0.0 | 0.00 | 0.03 | 0.00 | 85 | 1017.5 |
| 20260502070004 | 51 | 0 | 0.0 | 0.0 | 0.00 | 0.03 | 0.00 | 85 | 1017.4 |
| 20260502065403 | 51 | 0 | 0.0 | 0.0 | 0.00 | 0.03 | 0.00 | 85 | 1017.3 |
| 20260502064524 | 52 | 0 | 0.0 | 0.0 | 0.00 | 0.03 | 0.00 | 84 | 1017.3 |
| 20260502063624 | 52 | 0 | 0.0 | 0.0 | 0.00 | 0.03 | 0.00 | 84 | 1017.5 |
| 20260502062703 | 52 | 0 | 0.0 | 0.0 | 0.00 | 0.03 | 0.00 | 84 | 1017.6 |
| 20260502061803 | 52 | 0 | 0.0 | 0.0 | 0.00 | 0.03 | 0.00 | 84 | 1017.5 |
| 20260502060903 | 52 | 0 | 0.0 | 0.0 | 0.00 | 0.03 | 0.00 | 84 | 1017.6 |
| 20260502060003 | 52 | 0 | 0.0 | 0.0 | 0.00 | 0.03 | 0.00 | 84 | 1017.7 |
| 20260502055403 | 53 | 0 | 0.0 | 0.0 | 0.00 | 0.03 | 0.00 | 83 | 1017.7 |
| 20260502054503 | 53 | 0 | 0.0 | 0.0 | 0.00 | 0.03 | 0.00 | 83 | 1017.8 |
| 20260502053603 | 53 | 0 | 0.0 | 0.0 | 0.00 | 0.03 | 0.00 | 83 | 1017.7 |
| 20260502052703 | 53 | 0 | 0.0 | 0.0 | 0.00 | 0.03 | 0.00 | 83 | 1017.6 |
| 20260502051803 | 54 | 0 | 0.0 | 0.0 | 0.00 | 0.03 | 0.00 | 82 | 1017.4 |
| 20260502050924 | 54 | 0 | 0.0 | 0.0 | 0.00 | 0.03 | 0.00 | 82 | 1017.3 |
| 20260502050004 | 54 | 0 | 0.0 | 0.0 | 0.00 | 0.03 | 0.00 | 82 | 1017.4 |
| 20260502044504 | 54 | 0 | 0.0 | 0.0 | 0.00 | 0.03 | 0.03 | 82 | 1017.3 |
| 20260502043603 | 55 | 0 | 0.0 | 0.0 | 0.00 | 0.03 | 0.03 | 82 | 1017.4 |
| 20260502042703 | 55 | 0 | 0.0 | 0.0 | 0.00 | 0.03 | 0.03 | 81 | 1017.3 |
| 20260502041803 | 55 | 0 | 0.0 | 0.0 | 0.00 | 0.03 | 0.03 | 81 | 1017.3 |
| 20260502040924 | 56 | 0 | 0.0 | 0.0 | 0.00 | 0.03 | 0.03 | 81 | 1017.3 |
| 20260502040003 | 56 | 0 | 0.0 | 0.0 | 0.00 | 0.03 | 0.03 | 80 | 1017.3 |
| 20260502035403 | 56 | 0 | 0.0 | 0.0 | 0.00 | 0.03 | 0.03 | 80 | 1017.3 |
| 20260502034503 | 56 | 0 | 0.0 | 0.0 | 0.00 | 0.03 | 0.03 | 79 | 1017.2 |
| 20260502033624 | 56 | 0 | 0.0 | 0.0 | 0.00 | 0.03 | 0.03 | 79 | 1017.0 |